SCP
0 0 0 0 0 0 0 0 0 0 0 0 0 0 0 0 0 0 0 0 0 0 0 0 0 0 0 0 0 -0 -0 -0 -0 -0 -0 -0 0 0 0 0 0 0 0
0 0 0 0 0 0 0 0 0 0 0 0 0 0 0 0 0 0 0 0 0 0 0 0 0 0 0 0 -0 -0 -0 -0 -0 -0 -0 -0 -0 0 0 -0 -0 0 0
0 0 0 0 0 0 0 0 0 0 0 0 0 0 0 0 0 0 0 0 0 0 0 0 0 0 0 -0 -0 -0 -0 -0 -0 -0 -0 -0 -0 -0 0 0 -0 -0 -0
0 0 0 0 0 0 0 0 0 0 0 0 0 0 0 0 0 0 0 0 0 0 0 0 0 0 0 0 -0 -0 -0 -0 -0 -0 -0 -0 -0 -0 -0 -0 0 -0 -0
0 0 0 0 0 0 0 0 0 0 0 0 0 0 0 0 0 0 0 0 0 0 0 0 0 0 0 0 -0 -0 -0 -0 -0 -0 -0 -0 -0 -0 -0 -0 -0 -0 -0
0 0 0 0 0 0 0 0 0 0 0 0 0 0 0 0 0 0 0 0 0 0 0 0 0 0 0 0 -0 -0 -0 -0 -0 -0 -0 -0 -0 -0 -0 -0 -0 -0 -0
0 0 0 0 0 0 0 0 0 0 0 0 0 0 0 0 0 0 0 0 0 0 0 0 0 0 0 0 0 -0 -0 -0 -0 0 -0 -0 -0 -0 -0 -0 -0 -0 -0
0 0 0 0 0 0 0 0 0 0 0 0 0 0 0 0 0 0 0 0 0 0 0 0 0 0 0 0 0 0 0 0 0 0 0 0 0 0 0 0 0 -0 -0
0 0 0 0 0 0 0 0 0 0 0 0 0 0 0 0 0 0 0 0 0 0 0 0 0 0 0 0 0 0 0 0 0 0 0 0 0 0 0 0 0 0 0
0 0 0 0 0 0 0 0 0 0 0 0 0 0 0 0 0 0 0 0 0 0 0 0 0 0 0 0 0 0 0 0 0 0 0 0 0 0 0 0 0 0 0
0 0 0 0 0 0 0 0 0 0 0 0 0 0 0 0 0 0 0 0 0 0 0 0 0 0 0 0 0 0 0 0 0 0 0 0 0 0 0 0 0 0 0
0 0 0 0 0 0 0 0 0 0 0 0 0 0 0 0 0 0 0 0 0 0 0 0 0 0 0 0 0 0 0 0 0 0 0 0 0 0 0 0 0 0 0
0 0 0 0 0 0 0 0 0 0 0 0 0 0 0 0 0 0 0 0 0 0 0 0 0 0 0 0 0 0 0 0 0 0 0 0 0 0 0 0 0 0 0
0 0 0 0 0 0 0 0 0 0 0 0 0 0 0 0 0 0 0 0 0 0 0 0 0 0 0 0 0 0 0 0 0 0 0 0 0 0 0 0 0 0 0
0 0 0 0 0 0 0 0 0 0 0 0 0 0 0 0 0 0 0 0 0 0 0 0 0 0 0 0 0 0 0 0 0 0 0 0 0 0 0 0 0 0 0
0 0 0 0 0 0 0 0 0 0 0 0 0 0 0 0 0 0 0 0 0 0 0 0 0 0 0 0 0 0 0 0 0 0 0 0 0 0 0 0 0 0 0
0 0 0 0 0 0 0 0 0 0 0 0 0 0 0 0 0 0 0 0 0 0 0 0 0 0 0 0 0 0 0 0 0 0 0 0 0 0 0 0 0 0 0
0 0 0 0 0 0 0 0 0 0 0 0 0 0 0 0 0 0 0 0 0 0 0 0 0 0 0 0 0 0 0 0 0 0 0 0 0 0 0 0 0 0 0
0 0 0 0 0 0 0 0 0 0 0 0 0 0 0 0 0 0 0 0 0 0 0 0 0 0 0 0 0 0 0 0 0 0 0 0 0 0 0 0 0 0 0
0 0 0 0 0 0 0 0 0 0 0 0 0 0 0 0 0 0 0 0 0 0 0 0 0 0 0 0 0 0 0 0 0 0 0 0 0 0 0 0 0 0 0
0 0 0 0 0 0 0 0 0 0 0 0 0 0 0 0 0 0 0 0 0 0 0 0 0 0 0 0 0 0 0 0 0 0 0 0 0 0 0 0 0 0 0
0 0 0 0 0 0 0 0 0 0 0 0 0 0 0 0 0 0 0 0 0 0 0 0 0 0 0 0 0 0 0 0 0 0 0 0 0 0 0 0 0 0 0
0 0 0 0 0 0 0 0 0 0 0 0 0 0 0 0 0 0 0 0 0 0 0 0 0 0 0 0 0 0 0 0 0 0 0 0 0 0 0 0 0 0 0
0 0 0 0 0 0 0 0 0 0 0 0 0 0 0 0 0 0 0 0 0 0 0 0 0 0 0 0 0 0 0 0 0 0 0 0 0 0 0 0 0 0 0
0 0 0 0 0 0 0 0 0 0 0 0 0 0 0 0 0 0 0 0 0 0 0 0 0 0 0 0 0 0 0 0 0 0 0 0 0 0 0 0 0 0 0
0 0 0 0 0 0 0 0 0 0 0 0 0 0 0 0 0 0 0 0 0 0 0 0 0 0 0 0 0 0 0 0 0 0 0 0 0 0 0 0 0 0 0
Wind_Speed_500mb
10 9 7 7 7 6 5 6 6 7 5 7 8 6 7 8 8 10 12 8 9 11 12 13 13 13 11 9 10 10 11 9 9 10 11 11 11 10 9 8 8 10 10
11 10 10 11 8 10 10 10 10 10 9 9 10 11 11 12 13 13 12 11 12 14 14 16 15 14 13 13 15 15 13 10 9 8 9 9 9 8 8 8 12 11 11
13 13 11 12 11 14 13 13 11 12 12 13 13 12 15 15 16 15 15 15 14 15 17 18 18 18 18 18 19 19 15 12 10 9 8 8 7 7 8 8 10 14 13
17 15 14 12 15 17 16 15 13 13 13 13 13 13 17 17 17 17 19 18 17 17 21 21 20 21 21 21 22 22 18 15 13 10 9 7 6 6 7 7 10 12 13
16 16 15 15 15 17 17 17 16 15 12 13 16 18 18 21 21 20 22 22 22 22 24 23 24 24 24 24 24 24 23 18 16 13 11 10 8 7 8 9 10 11 11
17 17 17 17 17 18 18 19 18 14 17 18 20 23 25 24 26 25 25 25 26 26 27 28 26 26 28 27 26 26 27 23 19 16 15 13 10 9 9 10 10 10 10
17 17 17 16 18 19 16 19 20 18 18 18 21 19 24 25 27 29 29 30 30 30 31 31 31 30 31 31 30 29 30 28 25 21 19 16 14 12 11 10 10 11 10
19 20 20 19 17 19 20 21 23 20 19 18 14 15 11 16 23 28 33 33 33 34 35 35 34 34 35 34 32 32 33 31 30 27 24 21 18 16 14 13 12 10 10
17 20 21 22 21 22 23 23 24 25 22 16 19 13 8 12 8 20 22 30 35 38 38 38 39 38 39 39 36 36 37 35 34 32 30 26 23 21 20 18 17 14 12
18 18 20 23 24 25 26 25 25 28 28 28 21 24 29 21 8 9 17 19 20 35 40 39 41 41 41 42 42 39 38 39 39 38 35 33 30 28 27 25 23 21 19
20 21 22 21 24 27 28 28 26 28 30 31 30 26 27 29 28 28 27 21 25 22 27 41 42 44 45 45 47 45 41 42 43 42 41 40 38 36 34 33 31 29 26
19 24 28 28 27 28 29 30 32 35 36 35 35 33 35 30 20 26 34 39 37 30 32 34 37 45 51 53 52 50 48 46 46 47 47 47 46 45 43 41 39 37 34
14 18 25 30 33 34 34 33 34 36 37 41 41 41 39 42 40 38 35 39 35 35 30 37 46 46 46 49 53 54 52 52 53 52 52 53 53 53 51 49 47 45 43
13 21 28 31 33 34 36 37 39 41 41 43 45 45 46 46 44 46 46 41 40 41 40 48 41 41 47 51 52 51 53 56 58 61 58 57 59 59 59 57 56 54 53
16 16 17 21 25 30 33 36 42 42 40 43 45 47 48 50 50 51 49 48 46 37 41 45 38 44 39 48 54 55 52 53 56 64 66 66 66 66 66 66 65 63 62
20 20 19 18 19 19 24 29 36 40 40 42 42 43 45 49 49 51 53 54 52 54 57 44 36 40 50 47 43 42 48 54 59 62 65 72 74 75 73 73 73 73 72
24 24 23 22 20 19 18 19 23 28 32 36 38 43 47 49 48 50 51 56 59 58 65 75 68 64 54 62 63 62 57 57 58 57 58 66 74 78 80 80 81 81 82
25 27 26 25 24 23 20 18 18 19 25 30 34 38 43 46 48 50 54 55 57 59 62 72 71 69 67 66 69 74 72 71 71 72 73 73 72 71 75 84 86 87 88
28 28 27 28 28 26 23 24 20 21 22 24 26 30 37 40 43 46 49 52 54 56 59 64 73 67 69 69 69 71 77 75 73 73 76 80 82 81 83 85 84 85 91
30 29 29 29 31 29 24 35 32 30 27 25 27 28 31 32 35 39 44 46 50 53 55 56 60 66 63 66 65 68 74 80 81 73 75 79 82 82 84 89 90 92 95
31 30 32 31 31 32 28 44 43 40 36 33 31 26 27 30 39 40 47 50 46 45 49 54 56 56 59 50 56 60 65 72 77 71 76 81 84 86 88 83 86 94 99
35 32 32 33 35 31 35 50 50 48 44 36 32 31 30 31 27 36 33 32 39 45 56 63 51 51 55 57 53 52 57 61 75 61 44 58 53 68 75 80 81 82 90
34 33 32 30 31 31 36 48 49 44 41 33 32 32 31 27 29 32 38 39 37 34 40 45 53 62 68 61 55 54 56 59 68 73 71 80 75 84 84 87 89 91 88
33 31 29 29 30 26 33 37 35 23 25 26 28 30 33 32 29 44 51 50 44 37 31 38 45 50 50 48 52 61 72 77 80 77 65 80 79 89 88 89 89 89 92
29 25 25 26 25 21 28 33 35 37 29 30 29 26 26 24 24 43 52 54 49 46 43 38 42 47 51 54 51 59 75 81 83 83 72 74 78 83 83 81 76 74 69
23 21 20 19 19 21 30 38 38 27 26 33 38 31 21 32 42 47 53 55 55 51 47 56 62 61 61 61 56 54 58 68 74 79 62 62 66 62 73 69 49 38 39
Wind_Direction_500mb
217 245 266 266 253 254 257 254 262 260 278 253 256 250 238 250 241 238 244 234 231 224 217 207 205 203 211 211 217 208 187 162 138 120 105 97 88 81 77 82 104 109 111
230 245 253 259 261 265 258 255 249 254 260 265 253 253 233 236 230 242 244 239 234 232 225 223 221 221 226 231 236 225 199 174 153 126 106 93 88 87 87 90 110 120 121
230 237 237 259 251 263 268 268 264 262 264 265 261 258 262 244 249 242 248 245 238 235 234 232 227 230 234 237 241 233 212 184 167 143 118 102 94 100 102 110 102 113 114
238 229 240 251 259 263 266 265 259 261 266 265 268 270 267 254 249 248 248 248 245 248 236 235 233 236 238 243 245 242 226 201 181 160 145 131 128 122 129 123 109 109 106
238 240 246 253 254 262 266 264 267 267 255 270 276 269 258 258 251 245 250 252 249 245 249 238 236 237 240 244 246 248 239 220 200 182 174 166 153 154 160 154 134 122 113
250 248 251 250 249 263 267 266 265 260 263 259 268 270 266 261 257 250 250 251 251 246 243 247 238 240 241 243 246 247 247 236 220 204 194 188 176 181 178 174 155 141 134
253 255 252 253 261 260 263 264 261 265 272 287 280 305 299 275 255 263 253 248 251 250 244 243 245 243 241 241 242 245 247 245 236 223 212 205 199 202 198 192 176 166 163
252 256 262 257 251 263 268 262 264 261 270 253 260 281 307 249 274 245 256 250 245 251 246 244 242 241 246 243 241 242 244 244 243 235 227 219 214 215 218 215 207 194 183
269 273 270 263 258 258 263 266 264 263 253 258 268 236 288 254 301 271 270 261 249 242 248 245 244 241 241 246 246 238 240 241 243 241 238 232 229 227 229 231 227 222 216
274 277 278 272 261 256 266 264 264 262 259 254 251 267 244 254 302 316 299 292 278 250 248 248 245 243 242 243 247 245 239 239 241 243 242 241 239 236 236 239 239 237 235
255 255 263 266 266 265 261 262 257 260 259 256 249 242 265 260 252 255 272 275 294 287 266 253 247 243 243 244 244 247 243 240 240 242 243 244 245 244 242 242 244 245 245
264 262 258 258 256 261 267 269 267 259 260 261 258 249 247 246 264 264 256 260 262 266 274 269 250 250 248 248 249 249 244 243 241 242 243 244 246 247 247 247 247 249 250
281 280 274 264 262 259 257 258 262 266 267 264 262 262 256 255 252 245 257 259 263 257 262 267 262 255 253 252 250 247 247 242 243 243 243 244 246 248 249 250 250 251 253
288 275 272 268 264 260 262 262 258 261 261 266 268 266 262 259 258 256 251 257 267 268 269 267 267 268 258 252 253 252 249 245 243 244 244 244 246 247 249 250 252 253 254
355 341 325 295 278 268 262 260 262 261 263 263 264 268 264 265 263 260 259 254 253 265 269 267 265 274 266 256 251 251 251 249 246 246 246 245 246 248 248 250 251 253 255
355 354 346 339 328 304 283 273 269 268 264 259 262 261 261 268 265 263 260 262 254 251 260 260 246 260 273 268 267 260 257 255 254 251 250 248 248 248 249 250 251 252 254
347 344 343 343 340 331 324 302 285 277 269 266 263 260 264 261 257 259 265 265 263 257 256 269 267 261 255 269 269 264 262 263 264 261 259 256 254 254 252 251 252 252 254
347 341 338 338 331 330 335 330 323 304 287 279 277 271 267 267 266 260 258 256 264 267 262 267 273 271 269 265 266 272 273 269 263 262 262 260 261 262 261 258 256 255 255
337 335 334 334 332 332 337 308 317 316 310 300 291 281 272 269 268 270 269 269 264 261 262 262 270 272 273 271 270 270 273 272 270 270 267 264 261 259 258 260 261 262 260
322 325 325 326 323 324 328 306 311 307 304 305 300 292 289 281 273 271 270 269 269 269 268 266 270 274 274 278 274 271 270 274 278 277 272 272 271 267 263 259 258 258 259
309 314 311 309 310 312 312 298 304 306 306 305 301 304 298 286 278 279 271 265 258 262 270 272 270 273 277 275 273 281 275 279 279 278 278 278 278 276 272 267 264 262 261
311 304 306 309 304 307 297 292 293 294 298 300 304 299 299 300 302 289 306 295 282 278 268 259 266 272 273 275 277 275 275 275 279 287 289 283 276 275 279 279 273 266 263
313 311 312 308 307 312 306 299 305 298 301 303 298 299 301 301 301 292 274 278 280 285 286 289 284 275 267 262 272 277 275 274 275 282 288 283 277 275 277 279 279 279 277
317 318 316 316 318 320 318 313 312 315 314 307 299 299 302 303 302 296 290 290 291 286 277 277 282 287 287 284 276 274 273 273 273 271 269 274 281 281 284 284 283 282 282
322 322 321 328 331 323 305 308 316 312 302 296 289 279 276 282 293 296 295 301 296 291 284 279 274 274 277 276 274 275 273 276 277 277 278 278 281 285 286 287 286 286 285
321 326 329 323 325 311 312 314 321 326 321 316 312 299 295 293 285 289 303 310 305 301 297 283 278 278 278 283 286 280 281 280 283 282 286 280 289 287 282 289 296 289 287
Wind_Speed_850mb
10 9 7 7 7 6 5 6 6 7 5 7 8 6 7 8 8 10 12 8 9 11 12 13 13 13 11 9 10 10 11 9 9 10 11 11 11 10 9 8 8 10 10
11 10 10 11 8 10 10 10 10 10 9 9 10 11 11 12 13 13 12 11 12 14 14 16 15 14 13 13 15 15 13 10 9 8 9 9 9 8 8 8 12 11 11
13 13 11 12 11 14 13 13 11 12 12 13 13 12 15 15 16 15 15 15 14 15 17 18 18 18 18 18 19 19 15 12 10 9 8 8 7 7 8 8 10 14 13
17 15 14 12 15 17 16 15 13 13 13 13 13 13 17 17 17 17 19 18 17 17 21 21 20 21 21 21 22 22 18 15 13 10 9 7 6 6 7 7 10 12 13
16 16 15 15 15 17 17 17 16 15 12 13 16 18 18 21 21 20 22 22 22 22 24 23 24 24 24 24 24 24 23 18 16 13 11 10 8 7 8 9 10 11 11
17 17 17 17 17 18 18 19 18 14 17 18 20 23 25 24 26 25 25 25 26 26 27 28 26 26 28 27 26 26 27 23 19 16 15 13 10 9 9 10 10 10 10
17 17 17 16 18 19 16 19 20 18 18 18 21 19 24 25 27 29 29 30 30 30 31 31 31 30 31 31 30 29 30 28 25 21 19 16 14 12 11 10 10 11 10
19 20 20 19 17 19 20 21 23 20 19 18 14 15 11 16 23 28 33 33 33 34 35 35 34 34 35 34 32 32 33 31 30 27 24 21 18 16 14 13 12 10 10
17 20 21 22 21 22 23 23 24 25 22 16 19 13 8 12 8 20 22 30 35 38 38 38 39 38 39 39 36 36 37 35 34 32 30 26 23 21 20 18 17 14 12
18 18 20 23 24 25 26 25 25 28 28 28 21 24 29 21 8 9 17 19 20 35 40 39 41 41 41 42 42 39 38 39 39 38 35 33 30 28 27 25 23 21 19
20 21 22 21 24 27 28 28 26 28 30 31 30 26 27 29 28 28 27 21 25 22 27 41 42 44 45 45 47 45 41 42 43 42 41 40 38 36 34 33 31 29 26
19 24 28 28 27 28 29 30 32 35 36 35 35 33 35 30 20 26 34 39 37 30 32 34 37 45 51 53 52 50 48 46 46 47 47 47 46 45 43 41 39 37 34
14 18 25 30 33 34 34 33 34 36 37 41 41 41 39 42 40 38 35 39 35 35 30 37 46 46 46 49 53 54 52 52 53 52 52 53 53 53 51 49 47 45 43
13 21 28 31 33 34 36 37 39 41 41 43 45 45 46 46 44 46 46 41 40 41 40 48 41 41 47 51 52 51 53 56 58 61 58 57 59 59 59 57 56 54 53
16 16 17 21 25 30 33 36 42 42 40 43 45 47 48 50 50 51 49 48 46 37 41 45 38 44 39 48 54 55 52 53 56 64 66 66 66 66 66 66 65 63 62
20 20 19 18 19 19 24 29 36 40 40 42 42 43 45 49 49 51 53 54 52 54 57 44 36 40 50 47 43 42 48 54 59 62 65 72 74 75 73 73 73 73 72
24 24 23 22 20 19 18 19 23 28 32 36 38 43 47 49 48 50 51 56 59 58 65 75 68 64 54 62 63 62 57 57 58 57 58 66 74 78 80 80 81 81 82
25 27 26 25 24 23 20 18 18 19 25 30 34 38 43 46 48 50 54 55 57 59 62 72 71 69 67 66 69 74 72 71 71 72 73 73 72 71 75 84 86 87 88
28 28 27 28 28 26 23 24 20 21 22 24 26 30 37 40 43 46 49 52 54 56 59 64 73 67 69 69 69 71 77 75 73 73 76 80 82 81 83 85 84 85 91
30 29 29 29 31 29 24 35 32 30 27 25 27 28 31 32 35 39 44 46 50 53 55 56 60 66 63 66 65 68 74 80 81 73 75 79 82 82 84 89 90 92 95
31 30 32 31 31 32 28 44 43 40 36 33 31 26 27 30 39 40 47 50 46 45 49 54 56 56 59 50 56 60 65 72 77 71 76 81 84 86 88 83 86 94 99
35 32 32 33 35 31 35 50 50 48 44 36 32 31 30 31 27 36 33 32 39 45 56 63 51 51 55 57 53 52 57 61 75 61 44 58 53 68 75 80 81 82 90
34 33 32 30 31 31 36 48 49 44 41 33 32 32 31 27 29 32 38 39 37 34 40 45 53 62 68 61 55 54 56 59 68 73 71 80 75 84 84 87 89 91 88
33 31 29 29 30 26 33 37 35 23 25 26 28 30 33 32 29 44 51 50 44 37 31 38 45 50 50 48 52 61 72 77 80 77 65 80 79 89 88 89 89 89 92
29 25 25 26 25 21 28 33 35 37 29 30 29 26 26 24 24 43 52 54 49 46 43 38 42 47 51 54 51 59 75 81 83 83 72 74 78 83 83 81 76 74 69
23 21 20 19 19 21 30 38 38 27 26 33 38 31 21 32 42 47 53 55 55 51 47 56 62 61 61 61 56 54 58 68 74 79 62 62 66 62 73 69 49 38 39
Wind_Direction_850mb
217 245 266 266 253 254 257 254 262 260 278 253 256 250 238 250 241 238 244 234 231 224 217 207 205 203 211 211 217 208 187 162 138 120 105 97 88 81 77 82 104 109 111
230 245 253 259 261 265 258 255 249 254 260 265 253 253 233 236 230 242 244 239 234 232 225 223 221 221 226 231 236 225 199 174 153 126 106 93 88 87 87 90 110 120 121
230 237 237 259 251 263 268 268 264 262 264 265 261 258 262 244 249 242 248 245 238 235 234 232 227 230 234 237 241 233 212 184 167 143 118 102 94 100 102 110 102 113 114
238 229 240 251 259 263 266 265 259 261 266 265 268 270 267 254 249 248 248 248 245 248 236 235 233 236 238 243 245 242 226 201 181 160 145 131 128 122 129 123 109 109 106
238 240 246 253 254 262 266 264 267 267 255 270 276 269 258 258 251 245 250 252 249 245 249 238 236 237 240 244 246 248 239 220 200 182 174 166 153 154 160 154 134 122 113
250 248 251 250 249 263 267 266 265 260 263 259 268 270 266 261 257 250 250 251 251 246 243 247 238 240 241 243 246 247 247 236 220 204 194 188 176 181 178 174 155 141 134
253 255 252 253 261 260 263 264 261 265 272 287 280 305 299 275 255 263 253 248 251 250 244 243 245 243 241 241 242 245 247 245 236 223 212 205 199 202 198 192 176 166 163
252 256 262 257 251 263 268 262 264 261 270 253 260 281 307 249 274 245 256 250 245 251 246 244 242 241 246 243 241 242 244 244 243 235 227 219 214 215 218 215 207 194 183
269 273 270 263 258 258 263 266 264 263 253 258 268 236 288 254 301 271 270 261 249 242 248 245 244 241 241 246 246 238 240 241 243 241 238 232 229 227 229 231 227 222 216
274 277 278 272 261 256 266 264 264 262 259 254 251 267 244 254 302 316 299 292 278 250 248 248 245 243 242 243 247 245 239 239 241 243 242 241 239 236 236 239 239 237 235
255 255 263 266 266 265 261 262 257 260 259 256 249 242 265 260 252 255 272 275 294 287 266 253 247 243 243 244 244 247 243 240 240 242 243 244 245 244 242 242 244 245 245
264 262 258 258 256 261 267 269 267 259 260 261 258 249 247 246 264 264 256 260 262 266 274 269 250 250 248 248 249 249 244 243 241 242 243 244 246 247 247 247 247 249 250
281 280 274 264 262 259 257 258 262 266 267 264 262 262 256 255 252 245 257 259 263 257 262 267 262 255 253 252 250 247 247 242 243 243 243 244 246 248 249 250 250 251 253
288 275 272 268 264 260 262 262 258 261 261 266 268 266 262 259 258 256 251 257 267 268 269 267 267 268 258 252 253 252 249 245 243 244 244 244 246 247 249 250 252 253 254
355 341 325 295 278 268 262 260 262 261 263 263 264 268 264 265 263 260 259 254 253 265 269 267 265 274 266 256 251 251 251 249 246 246 246 245 246 248 248 250 251 253 255
355 354 346 339 328 304 283 273 269 268 264 259 262 261 261 268 265 263 260 262 254 251 260 260 246 260 273 268 267 260 257 255 254 251 250 248 248 248 249 250 251 252 254
347 344 343 343 340 331 324 302 285 277 269 266 263 260 264 261 257 259 265 265 263 257 256 269 267 261 255 269 269 264 262 263 264 261 259 256 254 254 252 251 252 252 254
347 341 338 338 331 330 335 330 323 304 287 279 277 271 267 267 266 260 258 256 264 267 262 267 273 271 269 265 266 272 273 269 263 262 262 260 261 262 261 258 256 255 255
337 335 334 334 332 332 337 308 317 316 310 300 291 281 272 269 268 270 269 269 264 261 262 262 270 272 273 271 270 270 273 272 270 270 267 264 261 259 258 260 261 262 260
322 325 325 326 323 324 328 306 311 307 304 305 300 292 289 281 273 271 270 269 269 269 268 266 270 274 274 278 274 271 270 274 278 277 272 272 271 267 263 259 258 258 259
309 314 311 309 310 312 312 298 304 306 306 305 301 304 298 286 278 279 271 265 258 262 270 272 270 273 277 275 273 281 275 279 279 278 278 278 278 276 272 267 264 262 261
311 304 306 309 304 307 297 292 293 294 298 300 304 299 299 300 302 289 306 295 282 278 268 259 266 272 273 275 277 275 275 275 279 287 289 283 276 275 279 279 273 266 263
313 311 312 308 307 312 306 299 305 298 301 303 298 299 301 301 301 292 274 278 280 285 286 289 284 275 267 262 272 277 275 274 275 282 288 283 277 275 277 279 279 279 277
317 318 316 316 318 320 318 313 312 315 314 307 299 299 302 303 302 296 290 290 291 286 277 277 282 287 287 284 276 274 273 273 273 271 269 274 281 281 284 284 283 282 282
322 322 321 328 331 323 305 308 316 312 302 296 289 279 276 282 293 296 295 301 296 291 284 279 274 274 277 276 274 275 273 276 277 277 278 278 281 285 286 287 286 286 285
321 326 329 323 325 311 312 314 321 326 321 316 312 299 295 293 285 289 303 310 305 301 297 283 278 278 278 283 286 280 281 280 283 282 286 280 289 287 282 289 296 289 287